Location: Unspecified
(50.0830°N, 0.0000°E)
Time: 02:21:59
(UTC+00:00)

Envisat - Pass Details

Date: 27 November 2019
Orbit: 764 x 766 km, 98.1° (Epoch: 14 December)

Event Time Altitude Azimuth Distance (km) Brightness Sun altitude
Rises 17:19:55 0° 151° (SSE) 3,222 6.1 -11.8°
Reaches altitude 10° 17:22:15 10° 147° (SSE) 2,300 5.3 -12.2°
Maximum altitude 17:27:12 56° 70° (ENE) 907 3.0 -12.9°
Drops below altitude 10° 17:32:11 10° 353° (N) 2,315 5.4 -13.7°
Sets 17:34:32 0° 349° (N) 3,245 6.2 -14.0°
